[[{"header":{"parameterUnit":"m.s-1","parameterCategory":1,"la1":30.2991,"la2":30.254,"lo1":-89.0895,"lo2":-89.0444,"dy":0.0017,"dx":0.0017,"nx":28,"ny":28,"refTime":"2024-06-18T09:00:00:Z","depth":0,"parameterNumber":2,"parameterNumberName":"U-component_of_WINDS"},"data":[0,0,0,0,0,0,0,0,0,0,0,0,0,0,0,0,0,0,0,0,0,0,0,0,0,0,0,0,0,0,0,0,0,0,0,0,0,0,0,0,0,0,0,0,0,0,0,0,0,0,0,0,0,0,0,0,0,0,-6.7321,-6.7322,0,-6.7421,-6.7422,-6.7423,-6.7252,-6.7246,-6.724,-6.7234,-6.7341,-6.735,-6.7358,0,0,0,0,0,0,0,0,0,0,0,0,0,-6.6986,-6.6993,-6.7321,-6.7322,-6.7323,-6.7421,-6.7422,-6.7424,-6.7253,-6.7246,-6.7238,-6.7232,-6.7339,-6.7349,-6.7358,0,0,0,0,0,0,0,0,0,0,0,0,0,-6.7114,-6.6995,-6.7321,-6.725,-6.7244,-6.7421,-6.7422,-6.7424,-6.7254,-6.7245,-6.7237,-6.7228,-6.7336,-6.7348,-6.736,-6.7611,0,0,-6.7398,-6.7403,0,0,0,0,0,0,0,0,-6.7106,-6.7126,-6.7259,-6.7255,-6.7249,-6.7315,-6.7343,-6.7487,-6.7256,-6.7251,-6.7234,-6.7224,-6.734,-6.7351,-6.739,-6.7616,-6.7621,-6.7399,-6.7406,-6.7412,-6.7415,0,0,0,0,0,0,0,-6.7098,-6.7121,-6.736,-6.7261,-6.7255,-6.7214,-6.7223,-6.737,-6.7343,-6.725,-6.7238,-6.7252,-6.7336,-6.7378,-6.7391,-6.7622,-6.7399,-6.741,-6.7417,-6.7422,-6.8063,-6.8072,0,0,0,0,0,0,-6.7097,-6.7114,-6.7357,-6.7363,-6.7155,-6.7227,-6.7237,-6.7303,-6.7341,-6.7338,-6.7259,-6.7244,-6.7361,-6.7376,-6.7394,-6.7692,-6.7412,-6.7423,-6.743,-6.8053,-6.8065,-6.8075,0,0,0,0,0,0,-6.7091,-6.712,-6.7353,-6.7236,-6.7262,-6.7242,-6.7318,-6.7309,-6.7351,-6.7348,-6.7343,-6.7307,-6.7355,-6.7376,-6.7559,-6.7694,-6.7429,-6.744,-6.8042,-6.8057,-6.807,-6.8291,0,0,0,0,0,0,-6.7082,-6.7119,-6.7213,-6.7239,-6.7269,-6.7516,-6.7326,-6.7317,-6.7373,-6.7353,-6.7391,-6.7389,-6.735,-6.7541,-6.7571,-6.7706,-6.745,-6.803,-6.8048,-6.8065,-6.8271,-6.8311,-6.8345,0,0,0,0,0,-6.707,-6.7272,-6.7219,-6.7249,-6.7386,-6.7524,-6.7541,-6.749,-6.7384,-6.748,-6.7478,-6.7388,-6.7674,-6.7561,-6.7593,-6.7734,-6.8021,-6.8043,-6.8064,-6.8255,-6.8303,-6.8344,0,0,0,0,0,0,-6.7264,-6.7274,-6.7215,-6.7431,-6.7478,-6.7494,-6.7613,-6.7542,-6.7621,-6.7599,-6.7534,-6.7544,-6.774,-6.7755,-6.7629,-6.798,-6.783,-6.7859,-6.7964,-6.801,-6.8046,-6.8039,-6.746,0,0,0,0,0,-6.7332,-6.7441,-6.7444,-6.7635,-6.7661,-6.7634,-6.7691,-6.7648,-6.7694,-6.7713,-6.7724,-6.7774,-6.7875,-6.7942,-6.8035,-6.8272,-6.8279,-6.8385,-6.8421,-6.8451,-6.8478,-6.8607,-6.8654,-6.8146,-6.8145,-6.8145,0,0,-6.7473,-6.7492,-6.7565,-6.7674,-6.7705,-6.7821,-6.7651,-6.7781,-6.7867,-6.7733,-6.7906,-6.7917,-6.7967,-6.8179,-6.8272,-6.8197,-6.862,-6.8479,-6.8503,-6.8513,-6.8634,-6.8682,-6.8725,-6.816,-6.8158,-6.8155,0,0,-6.779,-6.7815,-6.7977,-6.8011,-6.806,-6.804,-6.808,-6.8107,-6.8109,-6.8281,-6.8183,-6.8285,-6.846,-6.8501,-6.8544,-6.8878,-6.88,-6.891,-6.9103,-6.9229,-6.9269,-6.9304,-6.9425,-6.9469,-6.8936,-6.8937,-6.8937,0,-6.796,-6.813,-6.8069,-6.8207,-6.8258,-6.8141,-6.8305,-6.8342,-6.842,-6.8459,-6.8372,-6.859,-6.8616,-6.8836,-6.8918,-6.8956,-6.9001,-6.8906,-6.9268,-6.9302,-6.9334,-6.9449,-6.9495,-6.895,-6.8949,-6.8947,-6.8946,0,-6.8338,-6.8458,-6.8583,-6.8659,-6.8725,-6.8875,-6.8839,-6.8913,-6.8864,-6.8854,-6.9032,-6.9059,-6.9156,-6.9204,-6.9158,-6.9419,-6.9371,-6.9278,-6.9125,-6.9397,-6.9504,-6.9548,-6.8969,-6.8964,-6.896,-6.8957,0,0,-6.8781,-6.8822,-6.8869,-6.8903,-6.8948,-6.904,-6.9186,-6.9279,-6.9345,-6.9402,-6.9525,-6.9675,-6.9589,-6.9639,-6.9597,-6.9707,-6.9973,-6.96,-6.96,-6.967,-7.0265,-7.0336,-7.0388,-6.992,-6.9928,-6.9935,-7.0261,0,-6.9097,-6.9347,-6.9297,-6.9543,-6.9654,-6.9544,-6.9671,-6.9714,-6.971,-6.9804,-6.9799,-6.9908,-6.9785,-6.9814,-6.9919,-6.9919,-7.0092,-6.9894,-7.0036,-7.0042,-7.0028,-7.0444,-7.0519,-7.0826,-7.0302,-7.0309,-7.0314,0,-6.9501,-6.9572,-6.9829,-6.9858,-6.9902,-7.0018,-7.01,-7.0191,-7.0238,-7.0227,-7.0283,-7.022,-7.0367,-7.0212,-7.0414,-7.0281,-7.0336,-7.0345,-7.0356,-7.0369,-7.0196,-7.047,-7.0922,-7.0969,-7.0379,-7.0374,-7.037,0,-6.9801,-6.9961,-7.0136,-7.0168,-7.0206,-7.029,-7.0309,-7.0347,-7.0407,-7.0479,-7.0518,-7.0607,-7.0657,-7.0728,-7.0692,-7.0581,-7.0903,-7.0743,-7.0899,-7.0901,-7.0973,-7.097,-7.1443,-7.1006,-7.1005,-7.1005,-7.1004,0,-7.0161,-7.0323,-7.0271,-7.0379,-7.0558,-7.0499,-7.0678,-7.0685,-7.072,-7.0829,-7.0739,-7.0844,-7.0787,-7.0888,-7.0861,-7.1034,-7.1057,-7.1054,-7.1045,-7.1063,-7.1064,-7.11,-7.1078,-7.1017,-7.1014,-7.1012,-7.101,0,-7.0527,-7.0499,-7.0682,-7.0702,-7.0711,-7.0843,-7.086,-7.0962,-7.095,-7.1089,-7.1118,-7.1101,-7.1214,-7.1184,-7.1308,-7.129,-7.151,-7.1473,-7.1494,-7.1486,-7.1645,-7.1631,-7.2159,-7.2227,-7.1744,-7.1749,-7.1753,0,-7.076,-7.0881,-7.0915,-7.098,-7.1007,-7.1114,-7.1174,-7.1121,-7.1188,-7.1251,-7.1346,-7.1452,-7.1534,-7.1721,-7.1721,-7.1816,-7.1782,-7.1961,-7.1796,-7.1811,-7.1788,-7.1782,-7.1795,-7.1994,-7.2,-7.2004,-7.2008,0,-7.1176,-7.1156,-7.1246,-7.1333,-7.1407,-7.1472,-7.1529,-7.1589,-7.154,-7.1621,-7.1735,-7.1799,-7.1925,-7.2033,-7.212,-7.2141,-7.2069,-7.2059,-7.2101,-7.2122,-7.213,-7.213,-7.1586,-7.2048,-7.2044,-7.2041,-7.2039,-7.2037,-7.1484,-7.1588,-7.1628,-7.1732,-7.1769,-7.1825,-7.1921,-7.1922,-7.2016,-7.2114,-7.2077,-7.221,-7.2255,-7.2364,-7.2397,-7.2501,-7.2434,-7.2494,-7.2509,-7.2525,-7.2546,-7.2112,-7.2517,-7.2516,-7.2515,-7.2514,-7.2513,0,-7.1898,-7.1918,-7.2014,-7.2097,-7.2179,-7.21,-7.216,-7.2235,-7.2352,-7.2399,-7.2481,-7.2615,-7.2718,-7.2726,-7.2824,-7.2906,-7.2875,-7.2934,-7.2928,-7.2935,-7.26,-7.2555,-7.2957,-7.2957,-7.2957,-7.2957,-7.2957,-7.2957,-7.2123,-7.2295,-7.2281,-7.2471,-7.249,-7.2618,-7.2659,-7.2711,-7.2749,-7.2901,-7.2986,-7.299,-7.3023,-7.3122,-7.3215,-7.3214,-7.3256,-7.3328,-7.3316,-7.3003,-7.2958,-7.2916,-7.2874,-7.3337,-7.3337,-7.3642,-7.3645,-7.3647]},{"header":{"parameterUnit":"m.s-1","parameterCategory":1,"la1":30.2991,"la2":30.254,"lo1":-89.0895,"lo2":-89.0444,"dy":0.0017,"dx":0.0017,"nx":28,"ny":28,"refTime":"2024-06-18T09:00:00:Z","depth":0,"parameterNumber":3,"parameterNumberName":"V-component_of_WINDS"},"data":[0,0,0,0,0,0,0,0,0,0,0,0,0,0,0,0,0,0,0,0,0,0,0,0,0,0,0,0,0,0,0,0,0,0,0,0,0,0,0,0,0,0,0,0,0,0,0,0,0,0,0,0,0,0,0,0,0,0,-2.8664,-2.8663,0,-2.8585,-2.8584,-2.8584,-2.8537,-2.8537,-2.8537,-2.8537,-2.8451,-2.8449,-2.8446,0,0,0,0,0,0,0,0,0,0,0,0,0,-2.8767,-2.8766,-2.8664,-2.8663,-2.8662,-2.8585,-2.8584,-2.8583,-2.8537,-2.8537,-2.8537,-2.8537,-2.8451,-2.8449,-2.8446,0,0,0,0,0,0,0,0,0,0,0,0,0,-2.8709,-2.8765,-2.8664,-2.863,-2.8626,-2.8586,-2.8584,-2.8583,-2.8537,-2.8537,-2.8537,-2.8537,-2.8452,-2.8449,-2.8446,-2.8432,0,0,-2.8436,-2.8435,0,0,0,0,0,0,0,0,-2.8712,-2.8705,-2.8636,-2.8632,-2.8628,-2.8571,-2.8589,-2.8532,-2.8537,-2.8571,-2.8537,-2.8537,-2.849,-2.8484,-2.847,-2.8427,-2.8424,-2.8436,-2.8434,-2.8433,-2.8432,0,0,0,0,0,0,0,-2.8716,-2.8708,-2.8633,-2.8635,-2.863,-2.8616,-2.8608,-2.8578,-2.8533,-2.8568,-2.8564,-2.8556,-2.8488,-2.8473,-2.8467,-2.8423,-2.8436,-2.8433,-2.8431,-2.843,-2.8361,-2.8361,0,0,0,0,0,0,-2.8727,-2.8712,-2.8635,-2.863,-2.867,-2.8615,-2.8605,-2.8589,-2.8533,-2.8524,-2.8556,-2.8554,-2.8479,-2.8471,-2.8464,-2.8442,-2.8433,-2.843,-2.8428,-2.8361,-2.8361,-2.8361,0,0,0,0,0,0,-2.8729,-2.872,-2.8638,-2.867,-2.8659,-2.8613,-2.8596,-2.8588,-2.8573,-2.8525,-2.8516,-2.855,-2.8478,-2.8469,-2.844,-2.8438,-2.8428,-2.8425,-2.8361,-2.8361,-2.8361,-2.8399,0,0,0,0,0,0,-2.8732,-2.8721,-2.8717,-2.867,-2.8657,-2.8618,-2.8596,-2.8587,-2.8568,-2.8565,-2.8516,-2.8507,-2.8477,-2.8445,-2.8437,-2.8434,-2.8423,-2.8361,-2.8361,-2.8361,-2.8397,-2.84,-2.8403,0,0,0,0,0,-2.8736,-2.873,-2.8717,-2.8708,-2.8651,-2.8618,-2.861,-2.8577,-2.8568,-2.8562,-2.8531,-2.8509,-2.844,-2.8442,-2.8433,-2.8429,-2.8361,-2.8361,-2.8361,-2.8396,-2.84,-2.8403,0,0,0,0,0,0,-2.8777,-2.8723,-2.8709,-2.8688,-2.8658,-2.861,-2.8602,-2.8582,-2.8552,-2.8549,-2.8508,-2.8497,-2.8472,-2.8447,-2.8451,-2.841,-2.8398,-2.8396,-2.8428,-2.843,-2.8433,-2.8439,-2.842,0,0,0,0,0,-2.8783,-2.8763,-2.8716,-2.8702,-2.8688,-2.8648,-2.8632,-2.8609,-2.8575,-2.8562,-2.8528,-2.8495,-2.8465,-2.8446,-2.8417,-2.8394,-2.8381,-2.8386,-2.8389,-2.8391,-2.839,-2.8373,-2.8374,-2.8362,-2.8362,-2.8362,0,0,-2.8797,-2.8765,-2.8754,-2.871,-2.8684,-2.8661,-2.8637,-2.8614,-2.8596,-2.8557,-2.8528,-2.8502,-2.8462,-2.8435,-2.8422,-2.8414,-2.839,-2.8391,-2.8393,-2.8391,-2.8374,-2.8375,-2.8376,-2.8362,-2.8362,-2.8362,0,0,-2.8809,-2.8784,-2.8769,-2.8743,-2.8705,-2.8677,-2.8674,-2.8629,-2.861,-2.8581,-2.8551,-2.8527,-2.8478,-2.845,-2.8429,-2.8429,-2.8406,-2.842,-2.8433,-2.8417,-2.8418,-2.8419,-2.8417,-2.8417,-2.8419,-2.8419,-2.8419,0,-2.883,-2.8796,-2.8763,-2.8741,-2.8722,-2.8687,-2.867,-2.8646,-2.8599,-2.8585,-2.8577,-2.8513,-2.8484,-2.8449,-2.8449,-2.8434,-2.8426,-2.8425,-2.8421,-2.8422,-2.8422,-2.8419,-2.8419,-2.8421,-2.8421,-2.842,-2.842,0,-2.8822,-2.8799,-2.8791,-2.8748,-2.8727,-2.8708,-2.867,-2.8652,-2.8631,-2.8604,-2.8572,-2.8535,-2.8497,-2.8487,-2.8465,-2.8448,-2.8444,-2.843,-2.8416,-2.8425,-2.8422,-2.8421,-2.8423,-2.8423,-2.8422,-2.8422,0,0,-2.8858,-2.8797,-2.8794,-2.8774,-2.8728,-2.8708,-2.8686,-2.865,-2.8635,-2.8603,-2.8582,-2.854,-2.8526,-2.8502,-2.8476,-2.8463,-2.8463,-2.8449,-2.8447,-2.8452,-2.8439,-2.845,-2.845,-2.8448,-2.8448,-2.8447,-2.8442,0,-2.8863,-2.8824,-2.8793,-2.8765,-2.8741,-2.8708,-2.8688,-2.8656,-2.863,-2.8604,-2.8574,-2.8545,-2.8529,-2.8514,-2.8499,-2.8466,-2.8459,-2.8466,-2.8425,-2.8424,-2.8436,-2.8449,-2.8461,-2.8458,-2.8441,-2.8441,-2.8441,0,-2.8863,-2.8834,-2.8804,-2.876,-2.8749,-2.8732,-2.8695,-2.8672,-2.8634,-2.8616,-2.8589,-2.8563,-2.8535,-2.8524,-2.8483,-2.8489,-2.847,-2.845,-2.8449,-2.8444,-2.8433,-2.8442,-2.8457,-2.8456,-2.8439,-2.8439,-2.8439,0,-2.8891,-2.8844,-2.8819,-2.8803,-2.8751,-2.8739,-2.8716,-2.8679,-2.8658,-2.8625,-2.8611,-2.8575,-2.8555,-2.8526,-2.8489,-2.8485,-2.8451,-2.8438,-2.8433,-2.8434,-2.8427,-2.8428,-2.8438,-2.8417,-2.8417,-2.8417,-2.8417,0,-2.8898,-2.8881,-2.8831,-2.8816,-2.8794,-2.8757,-2.8736,-2.871,-2.8677,-2.8654,-2.8622,-2.86,-2.8554,-2.8526,-2.8497,-2.8466,-2.8458,-2.844,-2.8432,-2.8442,-2.8445,-2.8429,-2.8428,-2.8417,-2.8417,-2.8417,-2.8417,0,-2.8925,-2.8891,-2.8862,-2.8815,-2.8803,-2.8789,-2.8747,-2.873,-2.8702,-2.8673,-2.8664,-2.8619,-2.8584,-2.8545,-2.8497,-2.8477,-2.8448,-2.8438,-2.8462,-2.8457,-2.8454,-2.8455,-2.8453,-2.845,-2.8433,-2.8433,-2.8433,0,-2.8932,-2.8918,-2.887,-2.8853,-2.8832,-2.8805,-2.8785,-2.8747,-2.8726,-2.8682,-2.8669,-2.8632,-2.8601,-2.8547,-2.8508,-2.847,-2.8458,-2.846,-2.8452,-2.8462,-2.8456,-2.8457,-2.8455,-2.8462,-2.8462,-2.8463,-2.8463,0,-2.8947,-2.8931,-2.8904,-2.887,-2.8847,-2.8818,-2.8788,-2.8776,-2.8731,-2.8709,-2.8674,-2.865,-2.8602,-2.8565,-2.8522,-2.8495,-2.8471,-2.8466,-2.8463,-2.8473,-2.8487,-2.8478,-2.8467,-2.8466,-2.8466,-2.8466,-2.8465,-2.8465,-2.8963,-2.8948,-2.8912,-2.8882,-2.8856,-2.8828,-2.8809,-2.8779,-2.875,-2.8709,-2.8688,-2.8653,-2.8613,-2.8554,-2.8528,-2.8498,-2.849,-2.8485,-2.8484,-2.8483,-2.8485,-2.8493,-2.849,-2.849,-2.849,-2.8489,-2.8489,0,-2.8975,-2.895,-2.8923,-2.8883,-2.8858,-2.884,-2.8805,-2.8785,-2.8756,-2.8722,-2.8692,-2.8651,-2.8615,-2.8573,-2.8533,-2.8517,-2.8505,-2.8508,-2.8508,-2.8502,-2.8496,-2.8502,-2.8519,-2.8519,-2.8519,-2.8519,-2.8519,-2.8519,-2.8978,-2.8953,-2.8932,-2.8891,-2.8866,-2.8833,-2.8815,-2.8788,-2.876,-2.8717,-2.8688,-2.8662,-2.8623,-2.8581,-2.8545,-2.8534,-2.852,-2.8526,-2.8511,-2.8505,-2.8503,-2.8501,-2.8506,-2.8524,-2.8524,-2.852,-2.852,-2.852]}]]